星链-30334 (STARLINK-30334 )

导读 | 豆包AI

STARLINK-30334是美国SpaceX公司星链星座中的一颗量产型低轨通信卫星,于2023年8月27日发射升空。该卫星延续星链设计,采用平板构型搭载单太阳电池阵,配备以氪为工质的霍尔推进器,支持自主轨道调整与末端离轨。它工作于Ku/Ka波段,依托光学星间链路与相控阵技术,服务全球宽带互联网接入,设计寿命约5-7年,退役后将再入大气层焚毁。

基本信息
目录编号:
57719
目录名称:
STARLINK-30334
国际标识:
2023-129X
轨道中心:
EARTH
卫星名称:
星链-30334
卫星全名:
星链-30334 (STARLINK-30334 )
卫星状态:
在轨 (已飞行977 天)
发射日期:
2023-08-27 UTC
国别 :
美国 (US)
星等 :
--
轨道信息
数据来源 国际轨道数据
星历时间: 2026-04-30T12:09:31+0800
12小时前
查看轨道信息
半长轴: 6861.184km
偏心率: 0.0001388
轨道倾角: 43.004°
近地点辐角 282.277°
升交点赤经 187.375°
平近点角 77.792°
近地点: 482.094km
远地点: 484km
周期: 94.267分钟
每日圈数: 15.275809
详细信息
固有亮度:
5
最大亮度:
0.3
卫星平台:
Starlink v2.0 mini
覆盖范围:
全球
运营商:
太空探索技术公司
运营商所在国:
美国
制造商(研发单位):
太空探索技术公司
制造商所在国:
美国
使用方式:
暂无
卫星简介
星链(Starlink)计划是由太空探索技术公司(SpaceX)提出的一个巨型低轨卫星互联网星座项目,计划在2019年至2024年间在太空搭建由约1.2万颗卫星组成的“星链”网络,其中1584颗将部署在地球上空550千米处的近地轨道,并从2020年开始工作。该卫星仍在工作。
2D轨道图
3D轨道图
轨道高度分析图
轨道倾角分析图
轨道综合分析图
查看轨道综合分析图